EW1107 Weather Reports


Display with metric or nautical units.
time (UTC)temp
F
wind
direction
speed
MPH
gust
MPH
rain 1hr
in
rain 24hr
in
rain mn
in
humidity
%
barometer
mb
20220526114509 67 233 8.0 36.0 0.00 0.03 0.00 58 1015.5
20220526113009 68 284 14.0 36.0 0.00 0.03 0.00 57 1015.5
20220526111517 67 336 18.0 43.0 0.00 0.03 0.00 56 1015.4
20220526110004 67 250 18.0 40.0 0.00 0.08 0.00 55 1015.3
20220526104503 68 284 20.0 35.0 0.00 0.08 0.00 53 1015.3
20220526103007 68 263 19.0 42.0 0.00 0.08 0.00 54 1015.2
20220526101506 68 271 13.0 29.0 0.00 0.08 0.00 56 1015.1
20220526100003 66 269 14.0 47.0 0.00 0.22 0.00 55 1015.2
20220526094600 67 251 15.0 35.0 0.00 0.22 0.00 56 1015.2
20220526093057 67 258 10.0 37.0 0.00 0.22 0.00 56 1015.2
20220526091556 67 268 13.0 37.0 0.00 0.22 0.00 56 1015.2
20220526090056 66 236 12.0 46.0 0.00 0.22 0.00 62 1015.1
20220526084554 66 306 14.0 29.0 0.00 0.22 0.00 61 1015.2
20220526083048 65 279 8.0 23.0 0.00 0.22 0.00 68 1015.1
20220526081547 65 222 7.0 28.0 0.00 0.22 0.00 70 1015.2
20220526080051 65 245 7.0 20.0 0.00 0.22 0.00 71 1015.2
20220526074554 65 273 11.0 21.0 0.00 0.22 0.00 69 1015.2
20220526073043 65 170 6.0 17.0 0.00 0.22 0.00 71 1015.1
20220526071558 64 234 10.0 19.0 0.00 0.22 0.00 73 1015.2
20220526070039 63 234 7.0 21.0 0.00 0.22 0.00 75 1015.2
20220526064535 62 186 4.0 19.0 0.00 0.22 0.00 80 1015.3
20220526063029 60 228 5.0 14.0 0.00 0.22 0.00 81 1015.3
20220526061525 59 219 7.0 15.0 0.00 0.22 0.00 84 1015.5
20220526060027 59 220 6.0 15.0 0.00 0.22 0.00 85 1015.5
20220526054519 58 245 4.0 17.0 0.00 0.22 0.00 86 1015.5
20220526053016 57 209 5.0 16.0 0.00 0.22 0.00 90 1015.5
20220526051511 56 249 2.0 13.0 0.00 0.22 0.00 92 1015.4
20220526050007 55 244 3.0 10.0 0.00 0.22 0.00 94 1015.3
20220526044506 54 214 4.0 9.0 0.00 0.22 0.00 95 1015.2
20220526043006 53 223 5.0 12.0 0.00 0.22 0.00 96 1015.2
20220526041601 52 190 0.0 9.0 0.00 0.22 0.00 96 1015.3
20220526040054 52 223 0.0 4.0 0.00 0.22 0.00 96 1015.3
20220526034550 52 211 4.0 9.0 0.00 0.22 0.00 95 1015.2
20220526033047 51 198 0.0 1.0 0.00 0.22 0.00 95 1015.2
20220526031600 51 215 0.0 1.0 0.00 0.22 0.00 95 1015.1
20220526030041 51 206 0.0 0.0 0.00 0.23 0.00 95 1015.1
20220526024539 52 225 1.0 4.0 0.00 0.23 0.00 95 1015.2
20220526023039 52 227 0.0 7.0 0.00 0.23 0.00 95 1015.1
20220526021541 53 211 0.0 10.0 0.00 0.23 0.00 95 1015.1
20220526020038 53 250 2.0 15.0 0.00 0.23 0.00 95 1015.1
20220526014539 53 203 1.0 9.0 0.00 0.23 0.00 95 1015.0
20220526013033 53 205 1.0 7.0 0.00 0.23 0.00 95 1015.0
20220526011544 53 192 0.0 10.0 0.00 0.23 0.00 95 1015.1
20220526010031 52 209 0.0 4.0 0.00 0.23 0.00 95 1015.2
20220526004530 53 213 0.0 10.0 0.00 0.23 0.00 95 1015.3
20220526003028 52 196 0.0 7.0 0.00 0.23 0.00 95 1015.3
20220526001531 51 341 0.0 0.0 0.00 0.23 0.00 94 1015.3
20220526000026 51 341 0.0 0.0 0.00 0.23 0.00 93 1015.4
20220525234536 52 341 0.0 0.0 0.00 0.23 0.00 94 1015.5
20220525233022 52 341 0.0 0.0 0.00 0.23 0.00 93 1015.6
20220525231523 53 341 0.0 0.0 0.00 0.23 0.00 93 1015.6
20220525230039 53 341 0.0 0.0 0.00 0.23 0.00 94 1015.6
20220525224519 53 341 0.0 0.0 0.00 0.23 0.00 94 1015.7
20220525223020 54 5 1.0 8.0 0.00 0.23 0.00 94 1015.7
20220525221516 55 297 0.0 1.0 0.00 0.23 0.00 95 1015.8
20220525220024 55 279 0.0 0.0 0.00 0.23 0.23 94 1015.7
20220525214510 54 267 0.0 7.0 0.00 0.23 0.23 94 1015.8
20220525213015 54 262 0.0 11.0 0.00 0.23 0.23 94 1015.8
20220525211507 54 233 1.0 11.0 0.00 0.23 0.23 94 1015.6
20220525210005 54 232 1.0 8.0 0.00 0.26 0.23 94 1015.5
20220525204503 54 240 0.0 7.0 0.00 0.26 0.23 94 1015.4
20220525203006 55 212 0.0 10.0 0.00 0.26 0.23 93 1015.3
20220525201601 55 237 1.0 8.0 0.00 0.26 0.23 93 1015.3
20220525200103 55 235 0.0 6.0 0.00 0.33 0.23 93 1015.3
20220525194600 55 221 0.0 7.0 0.00 0.33 0.23 93 1015.2
20220525193057 55 207 0.0 8.0 0.00 0.33 0.23 92 1015.0
20220525191555 56 209 0.0 2.0 0.00 0.33 0.23 92 1014.9
20220525190059 56 209 0.0 0.0 0.00 0.56 0.23 91 1014.9
20220525184552 57 217 0.0 4.0 0.00 0.56 0.23 91 1014.9
20220525183051 58 234 0.0 7.0 0.00 0.56 0.23 90 1014.7
20220525181559 58 220 0.0 10.0 0.00 0.56 0.23 89 1014.6
20220525180057 59 198 3.0 13.0 0.00 0.63 0.23 88 1014.6
20220525174550 59 214 3.0 14.0 0.00 0.63 0.23 88 1014.6
20220525173051 59 207 2.0 11.0 0.00 0.63 0.23 88 1014.6
20220525171548 58 196 0.0 10.0 0.00 0.63 0.23 88 1014.5
20220525170047 58 202 0.0 7.0 0.00 0.63 0.23 89 1014.5
20220525164550 58 224 0.0 3.0 0.00 0.63 0.23 89 1014.5
20220525163046 58 217 0.0 8.0 0.00 0.63 0.23 88 1014.3
20220525161546 58 261 0.0 0.0 0.00 0.63 0.23 88 1014.2
20220525160048 58 269 1.0 13.0 0.00 0.63 0.23 87 1014.3
20220525154548 59 253 1.0 6.0 0.00 0.63 0.23 88 1014.3
20220525153044 59 236 0.0 0.0 0.00 0.63 0.23 88 1014.4
20220525151543 58 263 0.0 0.0 0.01 0.63 0.23 88 1014.3
20220525150043 58 296 0.0 7.0 0.01 0.63 0.23 88 1014.3
20220525144542 59 275 0.0 7.0 0.01 0.63 0.23 88 1014.3
20220525143043 59 321 0.0 0.0 0.01 0.63 0.23 87 1014.0
20220525141548 59 320 0.0 10.0 0.00 0.62 0.22 85 1014.0
20220525140046 59 347 0.0 11.0 0.00 0.62 0.22 84 1013.9
20220525134539 59 350 3.0 11.0 0.00 0.62 0.22 85 1013.7
20220525133045 58 360 0.0 3.0 0.00 0.62 0.22 89 1013.7
20220525131537 57 360 2.0 9.0 0.00 0.62 0.22 90 1013.7
20220525130037 57 38 0.0 4.0 0.00 0.62 0.22 90 1013.9
20220525124536 56 329 3.0 24.0 0.00 0.62 0.22 88 1013.9
20220525123036 57 309 8.0 15.0 0.01 0.62 0.22 88 1013.8
20220525121535 57 314 3.0 17.0 0.02 0.62 0.22 89 1013.5
20220525120041 57 317 6.0 13.0 0.02 0.62 0.22 89 1013.4